Weather History for Jaffrey, NH

Change the Weather History Date:

Thursday, April 18, 2013

  Actual Average Record
Temperature  
Mean Temperature 44 °F -  
Max Temperature 60 °F 54 °F 87 °F (2002)
Min Temperature 30 °F 31 °F 23 °F (2014)
Degree Days  
Heating Degree Days 20    
Moisture  
Dew Point 30 °F    
Average Humidity 55    
Maximum Humidity 89    
Minimum Humidity 33    
Precipitation  
Precipitation 0.00 in - - ()
Sea Level Pressure  
Sea Level Pressure 30.32 in    
Wind  
Wind Speed 6 mph (South)    
Max Wind Speed 15 mph    
Max Gust Speed 28 mph    
Visibility 10 miles    
Events      
Averages and records for this station are not official NWS values.
T = Trace of Precipitation, MM = Missing Value Source: NWS Daily Summary

Daily Weather History Graph

Daily Weather History Graph

Search for Another Location

Airport:

Trip Planner

Search our weather history database for the weather conditions in past years. The results will help you decide how hot, cold, wet, or windy it might be!

Date:

Astronomy

Apr. 18, 2013 Rise Set
Actual Time 6:01 AM EDT 7:33 PM EDT
Civil Twilight 5:31 AM EDT 8:03 PM EDT
Nautical Twilight 4:55 AM EDT 8:39 PM EDT
Astronomical Twilight 4:17 AM EDT 9:18 PM EDT
Moon 12:08 PM EDT (4/18) 1:48 AM EDT (4/18)
Length of Visible Light 14h 32m
Length of Day
13h 32m
First Quarter, 51% of the Moon is Illuminated
Apr 18
First Quarter
Apr 25
Full
May 2
Last Quarter
May 9
New
May 18
First Quarter

Hourly Weather History & Observations

Time (EDT) Temp. Windchill Dew Point Humidity Pressure Visibility Wind Dir Wind Speed Gust Speed Precip Events Conditions
12:52 AM 33.1 °F 30.0 °F 28.9 °F 85% 30.40 in 10.0 mi South 3.5 mph - N/A   Clear
1:52 AM 32.0 °F - 28.0 °F 85% 30.38 in 10.0 mi Calm Calm - N/A   Clear
2:52 AM 30.9 °F - 28.0 °F 89% 30.39 in 10.0 mi Calm Calm - N/A   Clear
3:52 AM 30.9 °F - 27.0 °F 85% 30.41 in 10.0 mi Calm Calm - N/A   Clear
4:52 AM 30.0 °F - 27.0 °F 88% 30.42 in 10.0 mi Calm Calm - N/A   Clear
5:52 AM 30.0 °F - 27.0 °F 88% 30.41 in 10.0 mi Calm Calm - N/A   Clear
6:52 AM 34.0 °F - 27.0 °F 75% 30.42 in 10.0 mi Calm Calm - N/A   Clear
7:52 AM 44.1 °F 40.8 °F 27.0 °F 51% 30.44 in 10.0 mi Variable 5.8 mph - N/A   Scattered Clouds
8:52 AM 46.9 °F - 25.0 °F 42% 30.42 in 10.0 mi Variable 5.8 mph - N/A   Clear
9:52 AM 48.9 °F - 27.0 °F 43% 30.42 in 10.0 mi Variable 6.9 mph - N/A   Clear
10:52 AM 52.0 °F - 30.0 °F 43% 30.40 in 10.0 mi SE 8.1 mph 16.1 mph N/A   Partly Cloudy
11:52 AM 54.0 °F - 30.0 °F 40% 30.39 in 10.0 mi South 12.7 mph 21.9 mph N/A   Scattered Clouds
12:52 PM 57.9 °F - 30.0 °F 35% 30.34 in 10.0 mi SSE 11.5 mph 20.7 mph N/A   Scattered Clouds
1:52 PM 59.0 °F - 30.0 °F 33% 30.32 in 10.0 mi South 13.8 mph 27.6 mph N/A   Overcast
2:52 PM 59.0 °F - 32.0 °F 36% 30.29 in 10.0 mi South 13.8 mph 23.0 mph N/A   Overcast
3:52 PM 57.9 °F - 30.9 °F 36% 30.27 in 10.0 mi South 13.8 mph 23.0 mph N/A   Overcast
4:52 PM 57.9 °F - 28.9 °F 33% 30.26 in 10.0 mi South 15.0 mph 21.9 mph N/A   Overcast
5:52 PM 57.0 °F - 28.9 °F 34% 30.25 in 10.0 mi South 13.8 mph 20.7 mph N/A   Overcast
6:52 PM 54.0 °F - 28.9 °F 38% 30.23 in 10.0 mi South 11.5 mph - N/A   Overcast
7:52 PM 53.1 °F - 26.1 °F 35% 30.21 in 10.0 mi South 12.7 mph 21.9 mph N/A   Overcast
8:52 PM 52.0 °F - 26.1 °F 37% 30.20 in 10.0 mi South 10.4 mph - N/A   Overcast
9:52 PM 51.1 °F - 30.9 °F 46% 30.17 in 10.0 mi South 11.5 mph 20.7 mph N/A   Overcast
10:02 PM 51.8 °F - 33.8 °F 50% 30.13 in 10.0 mi South 10.4 mph 20.7 mph N/A   Overcast
10:52 PM 50.0 °F - 41.0 °F 71% 30.16 in 10.0 mi SSW 11.5 mph - N/A   Overcast
11:52 PM 50.0 °F - 43.0 °F 77% 30.16 in 10.0 mi SSW 8.1 mph - N/A   Overcast